Francistown, Botswana

3:33 PM CAT on January 17, 2018 (GMT +0200)
Francistown

Weather History for FBFT - September, 2012

Change the Weather History Date:

Friday, September 21, 2012

  Actual Average Record
Temperature  
Mean Temperature 78 °F -  
Max Temperature 94 °F 86 °F 95 °F (2003)
Min Temperature 61 °F 60 °F 48 °F (1999)
Cooling Degree Days 12    
Growing Degree Days 28 (Base 50)    
Moisture  
Dew Point 47 °F    
Average Humidity 37    
Maximum Humidity 73    
Minimum Humidity 9    
Precipitation  
Precipitation 0.00 in - - ()
Sea Level Pressure  
Sea Level Pressure 30.02 in    
Wind  
Wind Speed 6 mph ()    
Max Wind Speed 9 mph    
Max Gust Speed -    
Visibility 6.2 miles    
Events      
Averages and records for this station are not official NWS values.
T = Trace of Precipitation, MM = Missing Value Source: Averaged Metar Reports

Daily Weather History Graph

Daily Weather History Graph

Search for Another Location

Airport or City:

Trip Planner

Search our weather history database for the weather conditions in past years. The results will help you decide how hot, cold, wet, or windy it might be!

Date:

Astronomy

Sep. 21, 2012 Rise Set
Actual Time 6:00 AM CAT 6:05 PM CAT
Civil Twilight 5:38 AM CAT 6:28 PM CAT
Nautical Twilight 5:12 AM CAT 6:53 PM CAT
Astronomical Twilight 4:46 AM CAT 7:19 PM CAT
Moon 10:04 AM CAT (9/21) 11:44 PM CAT (9/21)
Length of Visible Light 12h 49m
Length of Day
12h 05m
Waxing Crescent, 34% of the Moon is Illuminated
Sep 21
Waxing Crescent
Sep 22
First Quarter
Sep 30
Full
Oct 8
Last Quarter
Oct 15
New

Hourly Weather History & Observations

Time (CAT) Temp. Dew Point Humidity Pressure Visibility Wind Dir Wind Speed Gust Speed Precip Events Conditions
12:00 AM 71.6 °F 50.0 °F 46% 30.06 in 6.2 mi ESE 8.1 mph - N/A   Partly Cloudy
1:00 AM 71.6 °F 51.8 °F 50% 30.06 in - East 9.2 mph - N/A   Clear
2:00 AM 67 °F 41 °F 27%  in 6 mi NNE 6.9 mph - -  
3:00 AM 64.4 °F 50.0 °F 59% 30.04 in - ESE 6.9 mph - N/A   Clear
4:00 AM 64.4 °F 51.8 °F 64% 30.04 in - ESE 6.9 mph - N/A   Clear
5:00 AM 64.4 °F 55.4 °F 73% 30.04 in - East 6.9 mph - N/A   Clear
6:00 AM 62.6 °F 53.6 °F 72% 30.06 in - East 6.9 mph - N/A   Clear
7:00 AM 64.4 °F 55.4 °F 73% 30.09 in - ESE 6.9 mph - N/A   Clear
8:00 AM 68 °F 56 °F 58%  in 6 mi ESE 4.6 mph - -  
8:00 AM 68.0 °F 57.2 °F 68% 30.09 in - ESE 4.6 mph - N/A   Clear
9:00 AM 73.4 °F 55.4 °F 53% 30.09 in - East 9.2 mph - N/A   Clear
10:00 AM 78.8 °F 55.4 °F 44% 30.09 in - ENE 5.8 mph - N/A   Clear
11:00 AM 86.0 °F 48.2 °F 27% 30.06 in - NNW 8.1 mph - N/A   Clear
12:00 PM 91.4 °F 44.6 °F 20% 30.04 in - North 6.9 mph - N/A   Clear
1:00 PM 93.2 °F 42.8 °F 17% 30.01 in 6.2 mi NE 6.9 mph - N/A   Scattered Clouds
2:00 PM 93 °F 41 °F 9%  in 6 mi ESE 5.8 mph - -   Haze
2:00 PM 93.2 °F 41.0 °F 16% 29.98 in 6.2 mi ESE 5.8 mph - N/A   Scattered Clouds
3:00 PM 91.4 °F 37.4 °F 15% 29.95 in 6.2 mi ESE 4.6 mph - N/A   Scattered Clouds
4:00 PM 93.2 °F 39.2 °F 15% 29.95 in 6.2 mi SE 6.9 mph - N/A   Scattered Clouds
5:00 PM 91.4 °F 37.4 °F 15% 29.95 in 6.2 mi SE 8.1 mph - N/A   Scattered Clouds
6:00 PM 89.6 °F 44.6 °F 21% 29.98 in 6.2 mi ESE 8.1 mph - N/A   Scattered Clouds
7:00 PM 82.4 °F 44.6 °F 26% 29.98 in 6.2 mi ESE 4.6 mph - N/A   Scattered Clouds
8:00 PM 83 °F 44 °F 16%  in 6 mi ESE 6.9 mph - -   Scattered Clouds
8:00 PM 82.4 °F 44.6 °F 26% 29.98 in 6.2 mi ESE 6.9 mph - N/A   Partly Cloudy
9:00 PM 78.8 °F 44.6 °F 30% 30.01 in 6.2 mi SE 5.8 mph - N/A   Partly Cloudy
10:00 PM 77.0 °F 44.6 °F 32% 30.01 in 6.2 mi East 5.8 mph - N/A   Partly Cloudy
11:00 PM 77.0 °F 42.8 °F 29% 30.01 in 6.2 mi East 6.9 mph - N/A   Partly Cloudy